EW4288 Weather Reports


Display with metric or nautical units.
time (UTC)temp
F
wind
direction
speed
MPH
gust
MPH
rain 1hr
in
rain 24hr
in
rain mn
in
humidity
%
barometer
mb
20260507070015 60 173 3.0 19.0 0.00 0.00 0.00 53 1006.5
20260507064508 61 188 4.0 12.0 0.00 0.00 0.00 52 1006.4
20260507063014 61 212 2.0 11.0 0.00 0.00 0.00 51 1006.3
20260507061508 62 225 4.0 10.0 0.00 0.00 0.00 48 1006.1
20260507060007 62 190 3.0 6.0 0.00 0.00 0.00 50 1006.3
20260507054512 62 181 2.0 4.0 0.00 0.00 0.00 51 1006.3
20260507053007 63 237 2.0 4.0 0.00 0.00 0.00 51 1006.4
20260507051506 64 271 0.0 2.0 0.00 0.00 0.00 50 1006.3
20260507050013 65 163 1.0 4.0 0.00 0.00 0.00 47 1006.1
20260507044506 67 207 1.0 13.0 0.00 0.00 0.00 43 1006.2
20260507043005 68 236 3.0 11.0 0.00 0.00 0.00 44 1006.3
20260507041504 69 265 2.0 8.0 0.00 0.00 0.00 46 1006.1
20260507040006 69 199 3.0 13.0 0.00 0.00 0.00 46 1005.8
20260507034504 69 203 6.0 15.0 0.00 0.00 0.00 47 1005.5
20260507033006 69 238 4.0 19.0 0.00 0.00 0.00 48 1005.4
20260507031502 70 263 6.0 16.0 0.00 0.00 0.00 49 1005.4
20260507030001 70 205 3.0 9.0 0.00 0.00 0.00 50 1005.6
20260507024600 71 219 5.0 13.0 0.00 0.00 0.00 50 1005.6
20260507023106 71 163 5.0 16.0 0.00 0.00 0.00 49 1005.7
20260507021557 72 203 2.0 8.0 0.00 0.00 0.00 48 1005.9
20260507020057 72 178 1.0 8.0 0.00 0.00 0.00 46 1006.1
20260507014603 72 171 3.0 10.0 0.00 0.00 0.00 46 1006.2
20260507013053 73 172 1.0 7.0 0.00 0.00 0.00 45 1006.4
20260507011553 74 211 3.0 6.0 0.00 0.00 0.00 43 1006.4
20260507010051 74 169 3.0 12.0 0.00 0.00 0.00 43 1006.6
20260507004551 74 212 2.0 6.0 0.00 0.00 0.00 44 1006.7
20260507003051 74 271 3.0 12.0 0.00 0.00 0.00 43 1006.8
20260507001551 74 213 7.0 12.0 0.00 0.00 0.00 40 1006.8
20260507000048 75 277 5.0 12.0 0.00 0.00 0.00 41 1006.8
20260506234547 75 198 5.0 12.0 0.00 0.00 0.00 41 1006.8
20260506233100 75 276 5.0 15.0 0.00 0.00 0.00 40 1006.9
20260506231545 76 232 8.0 16.0 0.00 0.00 0.00 36 1007.0
20260506230045 76 215 5.0 13.0 0.00 0.00 0.00 40 1007.1
20260506224542 76 256 8.0 14.0 0.00 0.00 0.00 39 1007.3
20260506223039 77 238 6.0 12.0 0.00 0.00 0.00 39 1007.6
20260506221538 77 173 5.0 14.0 0.00 0.00 0.00 41 1007.7
20260506220036 77 205 4.0 12.0 0.00 0.00 0.00 42 1007.7
20260506214533 77 274 6.0 11.0 0.00 0.00 0.00 42 1008.0
20260506213032 77 283 5.0 15.0 0.00 0.00 0.00 43 1008.0
20260506211533 76 179 3.0 12.0 0.00 0.00 0.00 46 1008.2
20260506210028 77 256 5.0 10.0 0.00 0.00 0.00 44 1008.5
20260506204526 75 245 3.0 12.0 0.00 0.00 0.00 46 1008.7
20260506203024 75 149 4.0 9.0 0.00 0.00 0.00 49 1008.7
20260506201522 76 190 6.0 12.0 0.00 0.00 0.00 47 1008.9
20260506200019 74 222 5.0 11.0 0.00 0.00 0.00 50 1008.9
20260506194519 75 315 4.0 10.0 0.00 0.00 0.00 49 1008.9
20260506193016 74 323 2.0 7.0 0.00 0.00 0.00 47 1009.3
20260506191515 73 153 3.0 9.0 0.00 0.00 0.00 47 1009.6
20260506190013 72 286 4.0 11.0 0.00 0.00 0.00 49 1009.8
20260506184511 72 263 6.0 15.0 0.00 0.00 0.00 49 1009.6
20260506183011 72 233 2.0 8.0 0.00 0.00 0.00 51 1009.6
20260506181509 72 169 1.0 7.0 0.00 0.00 0.00 51 1009.7
20260506180006 70 122 4.0 11.0 0.00 0.00 0.00 52 1009.8
20260506174505 70 95 4.0 10.0 0.00 0.00 0.00 52 1009.9
20260506173003 68 158 4.0 9.0 0.00 0.00 0.00 52 1010.1
20260506171604 67 221 1.0 6.0 0.00 0.00 0.00 52 1010.3
20260506170105 66 117 4.0 8.0 0.00 0.00 0.00 53 1010.4
20260506164556 63 9 3.0 6.0 0.00 0.00 0.00 49 1010.6
20260506163110 62 136 3.0 6.0 0.00 0.00 0.00 51 1010.8
20260506161549 61 105 1.0 6.0 0.00 0.00 0.00 52 1010.7
20260506160045 59 78 5.0 9.0 0.00 0.00 0.00 53 1010.7
20260506154604 58 113 2.0 6.0 0.00 0.00 0.00 55 1010.8
20260506153048 56 64 2.0 8.0 0.00 0.00 0.00 58 1010.7
20260506151536 56 72 3.0 8.0 0.00 0.00 0.00 57 1010.9
20260506150034 55 71 4.0 8.0 0.00 0.00 0.00 58 1010.9
20260506144531 54 111 3.0 9.0 0.00 0.00 0.00 58 1010.8
20260506143038 53 84 3.0 9.0 0.00 0.00 0.00 58 1010.9
20260506141529 52 64 4.0 9.0 0.00 0.00 0.00 59 1010.9
20260506140027 51 111 2.0 8.0 0.00 0.00 0.00 63 1010.9
20260506134525 50 87 2.0 6.0 0.00 0.00 0.00 65 1010.8
20260506133026 50 156 3.0 8.0 0.00 0.00 0.00 63 1010.6
20260506131523 49 107 2.0 7.0 0.00 0.00 0.00 66 1010.6
20260506130022 49 119 4.0 8.0 0.00 0.00 0.00 65 1010.5
20260506124520 48 105 2.0 7.0 0.00 0.00 0.00 67 1010.4
20260506123018 49 105 5.0 9.0 0.00 0.00 0.00 65 1010.3
20260506121515 50 135 3.0 12.0 0.00 0.00 0.00 64 1010.1
20260506120013 51 121 3.0 8.0 0.00 0.00 0.00 62 1010.0
20260506114512 51 77 2.0 9.0 0.00 0.00 0.00 62 1009.9
20260506113011 51 134 2.0 9.0 0.00 0.00 0.00 61 1009.9
20260506111513 51 95 4.0 11.0 0.00 0.00 0.00 61 1009.9
20260506110009 51 115 2.0 7.0 0.00 0.00 0.00 62 1009.9
20260506104508 51 107 2.0 6.0 0.00 0.00 0.00 62 1009.9
20260506103007 51 133 2.0 7.0 0.00 0.00 0.00 61 1009.8
20260506101507 51 109 2.0 4.0 0.00 0.00 0.00 63 1009.8
20260506094503 51 121 2.0 6.0 0.00 0.00 0.00 63 1009.7
20260506093002 49 123 2.0 5.0 0.00 0.00 0.00 68 1009.8
20260506091501 49 145 1.0 3.0 0.00 0.00 0.00 70 1009.7
20260506090059 49 148 1.0 3.0 0.00 0.00 0.00 70 1009.6
20260506084557 50 162 2.0 4.0 0.00 0.00 0.00 70 1009.6
20260506083101 51 161 1.0 3.0 0.00 0.00 0.00 68 1009.6
20260506081552 53 135 2.0 6.0 0.00 0.00 0.00 62 1009.5
20260506073048 52 157 1.0 2.0 0.00 0.00 0.00 67 1009.4
20260506071545 52 115 2.0 4.0 0.00 0.00 0.00 64 1009.2